Regional Weather Roundup
Issued by NWS

Home | Current Version | Previous Version | Graphics & Text | Print | Product List | Glossary On
Versions: 1 2 3 4 5 6 7 8 9 10 11 12 13 14 15 16 17 18 19 20 21 22 23 24 25 26 27 28 29 30 31 32 33 34 35 36 37 38 39 40 41 42 43 44 45 46 47 48 49 50
581
ASUS44 KLIX 210201
RWRLA
LOUISIANA WEATHER ROUNDUP
NATIONAL WEATHER SERVICE NEW ORLEANS LA
900 PM CDT SAT SEP 20 2014

NOTE: "FAIR" INDICATES FEW OR NO CLOUDS BELOW 12,000 FEET WITH NO
      SIGNIFICANT WEATHER AND/OR OBSTRUCTIONS TO VISIBILITY.
      SKY/WX - SKY CONDITION AND SIGNIFICANT WEATHER.
      TMP - AIR TEMPERATURE.    DP   - DEWPOINT TEMPERATURE.
      RH  - RELATIVE HUMIDITY.  PRES - PRESSURE.
      HX  - HEAT INDEX.         WCI  - WIND CHILL INDEX.

*  THESE STATIONS ARE NOT NWS OR FAA STATIONS AND ARE NOT UNDER
   NWS QUALITY CONTROL.

LAZ040-048-061>063-065-066-069-210300-
SOUTHEAST LOUISIANA

CITY           SKY/WX    TMP DP  RH WIND       PRES   REMARKS
N.O. AUDUBON     N/A     82  73  74 MISG        N/A
N.O. INTL ARPT PTCLDY    81  69  67 E8        29.97R
N.O. LAKEFRONT CLEAR     80  72  76 E9        29.98R
N.O. DOWNTOWN* FAIR      81  70  69 E3        29.98R
SLIDELL        CLEAR     76  71  85 CALM      29.97R
BATON ROUGE    CLEAR     75  70  84 E3        29.97R
BOOTHVILLE     PTCLDY    80  71  74 E12       29.97R
BELLE CHASSE   PTCLDY    76  70  82 E5        29.97R
BOGALUSA*        N/A     74  69  84 CALM      29.99R
GALLIANO*      NOT AVBL
NEW ROADS*     FAIR      76  70  83 CALM      29.97R
GONZALES*      FAIR      73  73 100 CALM      29.97R
HAMMOND*       NOT AVBL
HOUMA*         CLEAR     76  61  61 E3        29.97R
PORT FOURCHON* PTCLDY    81  72  74 E15G22    29.98R

$$

LAZ041-044-053-054-210300-
SOUTHWEST LOUISIANA

CITY           SKY/WX    TMP DP  RH WIND       PRES   REMARKS
LAKE CHARLES   CLEAR     78  70  76 E3        29.96R
LAFAYETTE      CLEAR     77  74  90 CALM      29.97R
PATTERSON      CLEAR     73  70  88 E3        29.99R
SALT POINT       N/A     79  72  79 CALM      29.96R
NEW IBERIA     CLEAR     77  70  79 CALM      29.97R
CHENAULT AIRPK CLEAR     75  70  83 CALM      29.97

$$

LAZ027-028-210300-
CENTRAL LOUISIANA

CITY           SKY/WX    TMP DP  RH WIND       PRES   REMARKS
FORT POLK      CLEAR     75  68  78 CALM      29.97R
ALEXANDRIA INT CLEAR     74  69  85 CALM      29.96R
ALEXANDRIA     CLEAR     74  71  91 CALM      29.98R

$$

LAZ001-002-210300-
NORTHWEST LOUISIANA

CITY           SKY/WX    TMP DP  RH WIND       PRES   REMARKS
SHREVEPORT     CLEAR     78  66  66 CALM      29.96R
BARKSDALE AFB  NOT AVBL
DTN SHREVEPORT CLEAR     76  66  71 CALM      29.97R

$$

LAZ014-016-210300-
NORTHEAST LOUISIANA

CITY           SKY/WX    TMP DP  RH WIND       PRES   REMARKS
MONROE         MOCLDY    75  70  84 CALM      29.98R
TALLULAH       CLEAR     71  69  93 CALM      29.98R

$$




USA.gov is the U.S. government's official web portal to all federal, state and local government web resources and services.